Wind_Speed
9 10 10 11 11 12 13 13 13 15 16 16 16 17 17 17 17 17 17 18 18 19 18 18 18 18 18 18 18 17 18 18 17 17 16 17 17 17 17 18 18 18 19 19
10 11 12 12 13 13 13 13 13 15 16 16 17 16 17 17 17 16 16 16 16 17 17 17 18 18 17 18 18 18 18 18 17 16 16 16 17 17 17 18 18 19 20 20
11 12 13 13 13 13 13 14 14 15 16 16 16 16 17 16 16 16 15 15 15 16 15 16 17 17 18 18 18 18 17 17 16 16 16 15 16 17 17 18 19 19 20 21
13 13 13 14 14 14 14 15 15 15 16 16 16 17 17 16 15 15 15 14 14 14 14 14 14 15 16 16 16 15 15 16 16 16 15 15 15 15 16 18 19 19 19 19
13 13 14 14 15 15 15 15 15 16 16 16 16 17 18 17 16 15 14 14 14 13 14 13 12 13 14 14 14 15 15 14 15 14 14 14 14 15 15 16 17 18 18 18
13 14 14 15 16 16 16 16 16 16 16 17 17 18 17 17 16 15 15 13 12 12 12 11 12 13 13 14 15 15 14 14 14 14 13 13 14 14 15 15 15 16 16 17
14 14 15 16 16 17 16 16 15 15 15 17 17 17 16 17 16 15 14 13 12 11 11 11 11 13 13 13 13 14 14 14 14 14 14 14 15 15 16 16 15 16 16 17
14 15 16 15 16 16 15 15 15 15 15 16 17 16 15 15 15 14 13 12 12 11 11 11 11 12 12 12 12 14 14 14 14 14 14 15 15 16 16 16 16 17 17 18
16 16 17 16 16 15 15 15 15 16 16 16 16 16 15 15 14 14 13 13 12 11 11 11 10 11 12 12 11 13 13 14 14 15 15 16 16 16 16 17 17 17 18 18
16 17 17 17 17 16 15 15 16 15 16 15 15 15 15 15 14 13 12 12 12 11 11 11 10 10 12 12 12 13 13 13 14 15 16 15 16 16 16 17 17 18 18 18
17 17 17 17 16 16 16 15 16 16 16 16 16 15 15 15 14 13 12 12 12 11 11 11 11 12 12 13 13 13 14 13 14 14 14 15 15 15 16 17 17 18 18 19
16 16 17 17 17 16 16 16 16 16 17 17 17 16 16 15 14 13 12 12 12 11 11 11 11 11 12 13 14 14 14 14 14 14 14 15 14 14 15 15 16 17 18 19
17 17 17 17 17 17 17 16 17 17 18 17 17 17 16 16 15 14 13 13 12 12 13 12 12 11 12 14 14 14 15 15 15 15 14 14 15 15 15 15 16 17 18 18
18 18 18 17 17 19 17 17 17 18 18 18 17 17 17 17 16 15 14 14 14 14 14 14 14 13 13 14 15 14 14 15 15 15 15 15 15 15 14 15 15 15 16 17
20 20 19 19 19 18 18 17 18 18 19 19 18 18 18 18 17 17 16 15 15 16 15 15 15 15 15 15 15 15 15 16 16 15 16 16 15 15 15 15 15 16 16 17
20 21 20 19 19 19 19 18 19 19 20 20 19 18 19 19 19 18 18 17 17 17 16 16 16 16 16 17 17 16 16 16 16 16 16 16 15 15 16 16 15 16 16 16
21 21 20 20 20 20 20 20 20 20 20 20 20 19 19 19 19 19 19 18 18 18 18 17 17 17 18 18 18 17 17 17 16 16 16 16 16 16 16 17 16 16 15 15
20 20 21 22 22 22 22 21 21 20 20 20 21 20 20 20 20 20 20 20 19 19 18 18 18 18 18 18 18 18 18 17 17 17 17 16 16 17 17 16 16 15 15 15
22 22 22 22 22 23 22 22 21 21 21 21 21 21 20 20 20 20 20 20 19 19 19 18 18 18 18 18 18 19 18 18 18 17 17 17 17 17 17 16 16 16 16 16
21 22 22 21 21 21 21 22 21 21 22 22 22 21 21 20 20 20 20 20 20 19 19 19 19 19 19 19 19 19 18 18 18 17 17 18 18 18 17 16 17 17 17 16
22 21 21 21 21 21 21 21 21 21 22 22 22 22 22 22 22 21 21 21 21 20 20 20 19 19 19 19 19 19 19 18 18 18 18 18 18 18 18 17 16 16 16 16
21 22 21 21 21 21 21 22 22 22 22 22 22 22 22 22 22 22 22 22 21 21 21 20 20 19 19 19 20 20 20 19 18 19 19 18 18 18 18 17 16 16 16 16
21 21 21 21 22 22 22 23 23 22 21 20 20 20 21 21 22 22 22 21 21 21 21 20 20 20 20 20 21 21 20 19 18 18 19 19 18 18 17 16 16 17 16 16
21 20 21 21 22 21 22 22 22 22 22 21 20 20 19 20 20 21 20 20 20 20 20 20 21 21 21 20 20 20 20 19 19 19 18 18 18 18 18 17 17 16 16 17
23 22 22 21 21 22 21 21 21 21 21 21 21 20 20 19 20 20 20 21 21 20 20 21 21 22 22 21 21 21 20 20 20 19 19 19 18 18 18 17 17 17 17 17
23 22 22 21 21 21 21 20 20 20 20 20 20 20 20 19 19 20 21 22 21 21 21 21 21 21 21 22 22 22 22 22 20 19 19 20 20 19 18 17 17 17 17 16
Wind_Direction
252 255 256 258 260 264 268 270 275 278 281 284 287 286 291 294 292 289 285 284 282 281 279 275 270 269 268 269 267 263 260 259 254 251 252 248 244 243 248 253 257 260 262 262
255 255 257 257 261 267 271 273 277 282 283 286 290 292 293 295 295 293 290 286 285 284 279 274 270 269 269 268 266 261 258 254 254 254 254 250 244 244 250 254 256 260 262 263
257 256 258 261 267 271 273 274 279 283 285 289 293 297 297 297 296 295 293 288 285 285 281 277 273 269 269 268 264 261 256 253 254 253 253 253 250 251 255 256 258 261 263 262
261 260 261 264 268 271 271 274 278 282 287 292 297 297 296 302 301 298 295 292 287 284 280 277 271 267 267 267 263 261 257 257 255 254 254 254 256 256 259 259 260 262 265 263
263 264 265 266 268 271 271 273 276 282 288 290 295 299 300 300 300 301 300 298 291 286 283 275 268 265 264 267 266 263 259 257 257 254 253 256 256 256 259 261 262 263 264 266
264 265 266 267 268 270 271 274 277 282 289 290 293 296 299 297 297 300 300 300 293 290 287 277 267 263 265 267 266 263 260 260 261 260 259 262 263 263 264 264 264 264 266 269
265 269 268 269 271 272 273 276 281 284 286 289 293 296 297 295 294 299 302 298 295 292 285 276 266 263 264 267 267 264 263 264 262 261 260 262 264 265 268 268 267 268 270 272
264 265 269 272 273 275 274 274 279 281 283 287 292 294 295 294 295 298 299 297 296 294 288 281 274 266 266 267 265 265 267 268 265 264 263 264 266 268 269 270 269 270 272 272
266 266 269 272 273 273 275 273 275 280 286 285 286 289 288 293 294 296 298 298 296 293 288 287 280 266 266 267 267 269 270 269 269 266 266 268 266 268 270 270 270 271 271 271
266 268 270 273 273 272 272 273 273 278 283 283 285 289 289 290 293 294 294 296 298 295 290 286 279 271 267 267 269 273 274 272 271 268 267 271 269 269 269 270 270 271 271 271
265 268 271 273 273 275 274 274 273 274 274 276 280 284 283 286 288 289 288 290 294 295 294 288 281 273 267 268 272 274 273 273 271 270 271 274 274 271 271 271 270 271 272 273
264 266 270 272 272 273 274 273 273 274 277 276 277 279 279 283 286 286 285 285 288 293 292 292 286 276 271 270 271 272 273 273 272 270 273 276 275 273 273 271 271 272 273 275
264 266 271 275 276 275 276 274 273 272 272 273 276 279 279 280 283 283 282 282 284 286 288 287 285 280 274 272 271 274 274 273 273 271 274 280 278 274 275 276 276 276 276 276
264 264 266 269 272 276 277 275 273 271 271 273 275 275 275 279 279 277 278 281 282 281 281 280 279 279 276 272 271 274 275 274 273 271 273 279 280 278 277 280 280 279 279 277
263 266 267 267 269 270 272 275 274 272 271 271 271 270 273 274 273 273 275 277 278 278 278 276 276 275 272 270 269 270 273 275 274 272 275 278 280 284 282 280 282 281 279 277
264 266 268 267 268 270 272 272 272 272 271 271 271 272 271 271 273 273 273 273 274 275 276 276 274 272 270 269 268 267 271 274 274 274 277 278 281 286 284 282 282 281 280 280
266 268 268 269 270 271 273 272 272 272 271 269 269 270 270 271 272 274 274 272 273 273 274 274 273 272 270 270 267 265 268 271 272 274 277 280 283 286 285 282 280 278 278 279
267 268 268 270 271 271 275 273 271 272 272 269 268 268 271 272 273 273 273 272 274 274 274 274 272 271 270 270 269 266 265 265 269 273 276 280 283 284 285 281 276 275 276 278
263 266 268 268 270 273 273 272 270 272 273 273 272 273 275 274 275 273 272 271 273 275 274 273 271 271 269 267 266 265 264 264 266 271 277 281 284 285 283 280 275 274 274 276
265 265 267 267 267 271 271 271 271 272 274 274 275 275 274 273 272 272 271 272 272 272 273 272 271 272 269 267 264 264 264 264 268 272 276 280 283 284 280 277 276 273 272 275
263 262 264 266 268 269 270 271 272 273 276 276 275 273 271 270 270 272 272 272 271 271 271 270 269 269 268 266 264 264 263 266 268 271 276 280 282 281 278 274 275 275 274 276
262 260 261 263 266 268 270 270 270 273 276 278 276 273 272 271 271 271 270 271 271 270 269 267 265 265 266 265 265 265 266 268 269 272 277 279 280 279 275 272 275 276 276 276
259 259 261 262 264 267 269 270 271 274 276 277 277 273 272 273 272 272 270 269 270 270 268 266 264 264 266 266 264 265 265 267 270 275 278 277 276 275 274 272 274 277 277 274
258 259 261 263 265 266 268 269 271 272 274 275 274 274 272 273 273 272 270 269 270 270 267 264 264 265 264 265 264 265 266 268 271 275 275 275 275 275 275 275 275 274 276 276
259 261 263 264 267 268 266 267 271 272 273 274 274 277 278 275 272 270 269 272 271 269 265 264 264 263 265 267 265 265 265 268 271 270 271 273 273 273 271 272 274 275 276 279
258 261 264 267 268 269 269 267 271 274 275 276 277 278 277 272 268 269 271 272 272 270 269 268 266 265 267 270 269 268 269 269 270 269 269 271 271 271 271 272 274 277 279 281
Height
5844 5846 5847 5847 5848 5848 5848 5848 5848 5847 5845 5844 5843 5841 5839 5837 5836 5834 5832 5831 5829 5828 5827 5827 5827 5827 5827 5827 5827 5826 5827 5827 5827 5828 5828 5829 5829 5830 5831 5832 5832 5833 5833 5833
5843 5844 5844 5844 5844 5845 5845 5845 5845 5844 5842 5841 5839 5838 5836 5834 5832 5830 5828 5826 5825 5824 5823 5822 5822 5822 5822 5823 5822 5822 5822 5823 5823 5824 5824 5825 5825 5826 5827 5827 5828 5828 5829 5829
5840 5842 5841 5841 5841 5842 5842 5842 5841 5840 5839 5837 5836 5835 5833 5830 5828 5826 5824 5823 5821 5820 5819 5818 5818 5818 5818 5818 5819 5819 5818 5819 5819 5820 5820 5821 5822 5822 5823 5823 5823 5824 5824 5824
5837 5837 5837 5838 5838 5838 5838 5838 5837 5836 5836 5835 5834 5832 5830 5827 5825 5823 5821 5819 5818 5817 5816 5815 5814 5815 5815 5815 5815 5815 5815 5816 5816 5816 5817 5817 5818 5818 5819 5819 5819 5819 5819 5819
5834 5834 5834 5834 5835 5834 5835 5834 5834 5833 5832 5831 5830 5829 5828 5824 5822 5820 5818 5816 5814 5814 5812 5812 5812 5812 5812 5812 5812 5812 5812 5812 5813 5813 5813 5814 5814 5815 5815 5815 5815 5814 5815 5815
5830 5830 5830 5831 5831 5830 5830 5831 5830 5829 5829 5828 5827 5826 5824 5821 5819 5817 5815 5813 5811 5810 5809 5809 5809 5809 5809 5809 5809 5809 5809 5809 5810 5810 5810 5810 5810 5811 5811 5811 5810 5810 5810 5810
5827 5826 5826 5826 5826 5826 5827 5827 5827 5827 5826 5825 5823 5821 5820 5818 5815 5814 5812 5810 5809 5808 5806 5806 5806 5806 5806 5806 5806 5806 5806 5806 5806 5807 5807 5807 5807 5807 5807 5807 5807 5807 5806 5806
5823 5824 5822 5822 5822 5822 5822 5823 5824 5824 5823 5822 5819 5817 5817 5814 5812 5810 5809 5807 5806 5805 5804 5803 5802 5803 5803 5804 5804 5803 5803 5803 5803 5803 5804 5804 5803 5803 5803 5803 5803 5803 5802 5801
5819 5820 5818 5818 5818 5818 5818 5818 5819 5818 5817 5817 5816 5814 5812 5810 5809 5807 5806 5804 5803 5802 5801 5800 5800 5800 5801 5801 5801 5801 5800 5800 5800 5800 5800 5800 5799 5799 5798 5798 5798 5798 5797 5797
5814 5814 5814 5813 5813 5813 5814 5813 5813 5813 5812 5812 5812 5810 5809 5807 5805 5804 5803 5802 5801 5799 5798 5798 5797 5797 5797 5797 5798 5797 5797 5797 5796 5796 5796 5795 5795 5794 5793 5793 5793 5793 5793 5792
5808 5809 5809 5809 5808 5808 5809 5809 5808 5808 5808 5808 5808 5809 5805 5803 5802 5801 5800 5799 5798 5797 5796 5795 5794 5794 5794 5794 5794 5794 5794 5794 5793 5793 5792 5791 5791 5790 5789 5789 5789 5788 5788 5787
5803 5804 5804 5804 5804 5803 5803 5803 5803 5803 5802 5802 5802 5805 5800 5799 5798 5798 5797 5796 5795 5794 5793 5792 5791 5791 5791 5791 5790 5790 5790 5790 5789 5789 5788 5788 5787 5786 5785 5784 5784 5783 5783 5782
5799 5799 5799 5800 5801 5799 5798 5798 5798 5797 5797 5797 5797 5800 5795 5794 5794 5794 5793 5792 5792 5791 5790 5789 5788 5788 5788 5787 5787 5787 5786 5786 5785 5785 5784 5784 5783 5782 5781 5780 5779 5778 5777 5776
5793 5794 5795 5796 5795 5793 5793 5793 5792 5792 5791 5791 5792 5792 5791 5790 5789 5789 5789 5788 5788 5787 5787 5786 5785 5785 5784 5784 5783 5783 5782 5782 5781 5781 5780 5779 5778 5777 5776 5775 5774 5773 5772 5771
5787 5788 5788 5788 5788 5787 5787 5787 5786 5786 5786 5786 5786 5785 5785 5785 5784 5784 5784 5784 5783 5783 5782 5782 5781 5780 5780 5779 5779 5779 5778 5778 5777 5777 5776 5775 5774 5773 5772 5771 5769 5768 5767 5766
5781 5782 5782 5782 5782 5781 5781 5781 5781 5780 5780 5780 5780 5780 5780 5779 5779 5779 5779 5779 5778 5777 5777 5777 5776 5776 5775 5775 5774 5774 5774 5773 5773 5772 5771 5770 5769 5768 5767 5766 5764 5763 5762 5761
5775 5776 5776 5776 5776 5775 5776 5776 5775 5775 5774 5774 5774 5775 5774 5774 5773 5773 5773 5773 5773 5772 5771 5771 5771 5770 5770 5770 5769 5769 5769 5768 5768 5767 5766 5765 5764 5763 5762 5761 5759 5758 5758 5757
5769 5769 5769 5770 5770 5770 5772 5769 5769 5769 5768 5768 5767 5768 5768 5768 5767 5767 5767 5767 5767 5766 5766 5765 5765 5764 5764 5764 5764 5764 5763 5763 5763 5762 5761 5760 5759 5758 5757 5755 5754 5754 5753 5752
5762 5763 5763 5764 5764 5763 5764 5763 5763 5763 5762 5762 5761 5761 5761 5761 5761 5761 5761 5761 5761 5760 5759 5759 5759 5758 5758 5758 5758 5758 5758 5758 5757 5757 5756 5755 5754 5753 5751 5750 5749 5748 5748 5747
5755 5755 5756 5756 5757 5758 5758 5756 5756 5758 5756 5755 5755 5755 5755 5754 5755 5756 5755 5755 5754 5754 5753 5753 5753 5752 5752 5752 5752 5752 5752 5752 5752 5752 5751 5750 5749 5747 5746 5745 5744 5743 5742 5741
5748 5748 5749 5750 5750 5751 5750 5750 5751 5752 5751 5749 5748 5748 5748 5748 5748 5749 5748 5748 5748 5748 5747 5747 5747 5746 5746 5746 5746 5746 5746 5746 5746 5746 5745 5744 5743 5741 5740 5740 5738 5738 5737 5736
5741 5742 5742 5743 5744 5746 5744 5744 5745 5744 5743 5742 5741 5741 5741 5741 5741 5741 5741 5741 5741 5741 5741 5741 5740 5740 5740 5740 5740 5741 5741 5740 5740 5740 5739 5738 5737 5735 5735 5734 5733 5732 5731 5730
5735 5736 5736 5738 5739 5738 5737 5736 5737 5736 5736 5735 5735 5734 5734 5734 5734 5734 5734 5734 5734 5734 5734 5734 5734 5734 5734 5734 5734 5734 5734 5734 5734 5733 5733 5732 5731 5730 5729 5728 5728 5727 5726 5725
5728 5729 5730 5730 5730 5730 5730 5729 5729 5729 5729 5728 5728 5728 5727 5727 5727 5727 5727 5727 5727 5727 5727 5727 5727 5728 5728 5727 5727 5727 5727 5727 5727 5727 5727 5726 5725 5724 5724 5723 5722 5721 5721 5720
5721 5722 5722 5723 5723 5723 5723 5723 5723 5723 5722 5722 5722 5721 5721 5721 5721 5721 5721 5720 5720 5720 5720 5720 5720 5721 5721 5721 5721 5721 5721 5721 5721 5720 5720 5719 5719 5718 5718 5717 5716 5716 5715 5714
5714 5715 5716 5716 5716 5717 5717 5716 5716 5716 5716 5716 5715 5715 5715 5715 5715 5714 5714 5714 5713 5713 5713 5713 5713 5714 5714 5713 5714 5714 5714 5714 5714 5713 5713 5713 5713 5712 5712 5711 5711 5710 5710 5709